#timestamp,LO_Frequency,Hit,StdDev 
1561561215.3,286047000.6,N
1561561235.1,286047002.7,N
1561561255.9,286047000.2,N
1561561275.7,286047000.3,N
1561561295.6,286047002.3,N
1561561315.4,286047004.2,N
1561561335.2,286047005.7,N
1561561355.1,286047003.3,N
1561561356.0,286047003.3,N
1561561375.8,286047001.8,N
1561561395.6,286047002.8,N
1561561415.5,286047001.9,N
1561561435.3,286047001.3,N
1561561455.2,286047003.9,N
1561561475.9,286047003.6,N
1561561495.7,286047004.4,N
1561561515.6,286047003.7,N
1561561535.4,286047005.4,N
1561561555.2,286047003.7,N
1561561575.1,286047003.4,N
1561561576.0,286047003.4,N
1561561595.8,286047001.9,N
1561561615.7,286047003.5,N
1561561635.5,286047003.7,N
1561561655.3,286047004.0,N
1561561675.2,286047003.6,N
1561561695.9,286047004.2,N
1561561715.7,286047004.4,N
1561561735.6,286047005.9,Y
1561561755.4,286047001.8,P
1561561775.3,286047002.1,P
1561561795.1,286047002.3,P
1561561796.0,286047002.3,Y
1561561815.8,286046999.7,P
1561561835.7,286047002.4,N
1561561855.5,286047002.4,N
1561561875.4,286046998.2,N
1561561895.2,286047001.1,N
1561561915.0,286047000.7,N
1561561915.9,286047000.7,N
1561561935.8,286047000.7,N
1561561955.6,286047000.1,N
1561561975.4,286047000.7,N
1561561995.3,286047001.2,N
1561562015.1,286046998.6,N
1561562035.9,286046999.1,N
1561562055.7,286046999.0,N
1561562075.5,286046999.4,N
1561562095.4,286046998.4,N
1561562115.2,286047000.8,N
1561562135.1,286047000.8,N
1561562136.0,286047000.8,N
1561562155.8,286047001.1,N
1561562175.6,286046998.4,N
1561562195.5,286047000.0,N
1561562215.3,286047002.8,N
1561562235.2,286047000.8,N
1561562255.9,286047002.5,N
1561562275.7,286047001.8,N
1561562295.6,286047002.1,N
1561562315.4,286047000.0,N
1561562335.2,286047001.0,N
1561562355.1,286046996.7,N
1561562356.0,286046996.7,N
1561562375.8,286046998.9,N
1561562395.7,286046998.5,N
1561562415.5,286046998.8,N
1561562435.3,286046999.4,N
1561562455.2,286046999.0,N
1561562475.0,286046996.7,N
1561562475.9,286046996.7,N
1561562495.8,286046995.0,N
1561562515.6,286046993.6,Y
1561562535.4,286046995.0,P
1561562555.3,286046997.9,N
1561562575.1,286046997.4,N
1561562595.8,286046999.5,N
1561562615.7,286047001.2,N
1561562635.5,286047000.5,N
1561562655.4,286046999.7,N
1561562675.2,286047003.6,N
1561562695.0,286047002.1,N
1561562695.9,286047002.1,N
1561562715.8,286047002.6,N
1561562735.6,286046999.8,N
1561562755.4,286047000.6,N
1561562775.3,286047011.9,Y
1561562795.1,286047001.9,P
1561562815.9,286047003.7,P
1561562835.7,286047003.2,N
1561562855.6,286047003.3,N
1561562875.4,286047003.1,N
1561562895.2,286047004.2,Y
1561562915.1,286047000.8,P
1561562916.0,286047000.8,N
1561562935.8,286046998.8,N
1561562955.7,286046998.1,N
1561562975.5,286047001.2,N
1561562995.3,286047000.8,N
1561563015.2,286046999.0,N
1561563035.9,286046998.1,N
1561563055.7,286046998.3,N
1561563075.6,286046998.1,N
1561563095.4,286047001.0,N
1561563115.2,286046997.1,N
1561563135.1,286046996.7,N
1561563136.0,286046996.7,N
1561563155.8,286046997.8,N
1561563175.7,286046996.9,N
1561563195.5,286046997.0,N
1561563215.3,286046998.9,N
1561563235.2,286046998.4,N
1561563255.0,286047011.9,Y
1561563255.9,286047000.5,P
1561563275.8,286047001.4,N
1561563295.6,286047004.0,P
1561563315.4,286047002.4,N
1561563335.3,286046999.9,N
1561563355.1,286046999.9,N
1561563375.8,286046999.7,N
1561563395.7,286047000.2,N
1561563415.5,286047000.6,N
1561563435.3,286046999.4,N
1561563455.2,286046999.1,N
1561563475.0,286046997.0,N
1561563475.9,286046997.0,N
1561563495.8,286046999.2,N
1561563515.6,286046996.9,N
1561563535.4,286046996.5,N
1561563555.3,286046997.2,N
1561563575.1,286046997.9,N
1561563595.9,286046997.7,N
1561563615.7,286046997.9,N
1561563635.5,286046994.9,N
1561563655.4,286046995.6,N
1561563675.2,286046995.5,N
1561563695.0,286046996.1,N
1561563695.9,286046996.1,N
1561563715.8,286046996.3,N
1561563735.6,286046995.9,N
1561563755.5,286046995.2,N
1561563775.3,286046996.5,N
1561563795.1,286046998.9,N
1561563815.9,286046998.7,N
1561563835.7,286046999.4,N
1561563855.5,286046998.8,N
1561563875.4,286046999.6,N
1561563895.2,286046998.4,N
1561563915.0,286046998.1,N
1561563916.0,286046998.1,N
1561563935.8,286046998.2,N
1561563955.6,286047001.1,N
1561563975.5,286047000.7,N
1561563995.3,286046996.6,N
1561564015.1,286046998.0,N
1561564035.9,286046999.2,N
1561564055.7,286046996.5,N
1561564075.6,286046997.7,N
1561564095.4,286046999.6,N
1561564115.2,286046997.8,N
1561564135.1,286046997.6,N
1561564136.0,286046997.6,N
1561564155.8,286046996.0,N
1561564175.7,286046993.9,Y
1561564195.5,286046995.0,P
1561564215.3,286046998.0,N
1561564235.2,286046995.0,P
1561564255.0,286046997.9,N
1561564255.9,286046997.9,N
1561564275.8,286046997.6,N
1561564295.6,286046995.5,Y
1561564315.4,286047001.1,P
1561564335.3,286046998.7,N
1561564355.1,286046996.9,N
1561564375.9,286046999.5,N
1561564395.7,286046996.5,N
1561564415.5,286046996.6,N
1561564435.4,286046996.7,N
1561564455.2,286046997.9,N
1561564475.0,286046995.1,Y
1561564475.9,286046995.1,P
1561564495.8,286046999.1,N
1561564515.6,286046999.2,N
1561564535.5,286046996.5,N
1561564555.3,286046998.6,N
1561564575.1,286047000.7,N
1561564595.9,286047000.8,N
1561564615.7,286047000.7,N
1561564635.5,286047000.5,N
1561564655.4,286047000.3,N
1561564675.2,286047000.6,N
1561564695.1,286047000.3,N
1561564696.0,286047000.3,N
1561564715.8,286047000.3,N
1561564735.6,286047000.7,N
1561564755.5,286046999.9,N
1561564775.3,286047001.2,N
1561564795.1,286046998.5,N
